Location: Dolanco Junction
(33.8450°N, 118.3001°W)
Time: 06:05:32
(UTC+00:00)

Daily predictions for brighter satellites

Satellite Brightness Start Highest point End
(mag) Time Altitude Azimuth Time Altitude Azimuth Time Altitude Azimuth
ALOS 4.3 12:00:03 10° NW 12:01:28 11° WNW 12:02:53 10° W
Cosmos 1809 Rocket 4.5 12:03:39 10° NNW 12:09:43 70° W 12:15:45 10° S
Cosmos 1782 3.3 12:09:21 10° NNW 12:12:55 37° W 12:16:27 10° SSW
Cosmos 2151 4.1 12:09:14 10° SSE 12:13:11 46° E 12:17:08 10° NNE
